הכול
Urapunga Airport YUPG מזג אוויר
There is no TAF data available at YUPG. Showing TAF data for YNGU (12 mi מז').
RPM Terminal Area Forecast (no data for YUPG)
| Here is the undecoded forecast: 2026/05/04 20:01 YNGU 042001Z 0420/0508 VRB03KT CAVOK FM042200 10010KT CAVOK PROB30 0420/0421 0500 FG RMK T 22 25 32 33 Q 1012 1014 1014 1010 |
There is no METAR data available at YUPG. Showing METAR data for YNGU (12 mi מז').
Recent RPM METAR history (no data for YUPG)
| Date | Time (ACST) | Flight Rules | Wind Dir. | Speed | Type | Height AGL (ft) | Visibility | Temp (°C) | Temp (°F) | Dew Point (°C) | Dew Point (°F) | Rel. Humid. | Pressure | Density Altitude | Remarks |
|---|---|---|---|---|---|---|---|---|---|---|---|---|---|---|---|
| 05-מאי | 12:30 | n/a | 100° | 11 kt | Missing | 32° | 89° | 19° | 66° | 46% | 1013 mb | 2,091 ft | |||
| 05-מאי | 11:30 | n/a | 110° | 9 kt | Missing | 31° | 87° | 18° | 64° | 46% | 1014 mb | 1,942 ft | |||
| 05-מאי | 10:30 | n/a | 120° | 8 kt | Missing | 30° | 86° | 20° | 68° | 55% | 1014 mb | 1,822 ft | |||
| 05-מאי | 09:30 | n/a | 110° | 7 kt | Missing | 28° | 82° | 19° | 66° | 58% | 1014 mb | 1,582 ft | |||
| 05-מאי | 08:30 | n/a | 150° | 4 kt | Missing | 25° | 77° | 20° | 68° | 74% | 1014 mb | 1,222 ft | |||
| 05-מאי | 07:30 | n/a | 130° | 2 kt | Missing | 23° | 73° | 20° | 68° | 83% | 1013 mb | 1,011 ft | |||
| 05-מאי | 06:30 | n/a | Calm | Missing | 20° | 68° | 19° | 66° | 94% | 1013 mb | 651 ft | ||||
| 05-מאי | 05:30 | n/a | Calm | Missing | 21° | 69° | 20° | 68° | 94% | 1012 mb | 801 ft | ||||
| 05-מאי | 04:30 | n/a | 150° | 2 kt | Missing | 21° | 69° | 20° | 68° | 94% | 1012 mb | 801 ft | |||
| 05-מאי | 03:30 | n/a | 150° | 1 kt | Missing | 22° | 71° | 22° | 71° | 100% | 1012 mb | 921 ft | |||
| 05-מאי | 02:30 | n/a | Calm | Missing | 23° | 73° | 22° | 71° | 94% | 1012 mb | 1,041 ft | ||||
| 05-מאי | 01:30 | n/a | 160° | 1 kt | Missing | 23° | 73° | 22° | 71° | 94% | 1013 mb | 1,011 ft | |||
| 05-מאי | 00:30 | n/a | 170° | 2 kt | Missing | 23° | 73° | 23° | 73° | 100% | 1013 mb | 1,011 ft | |||
| 04-מאי | 23:30 | n/a | 190° | 3 kt | Missing | 23° | 73° | 22° | 71° | 94% | 1014 mb | 982 ft | |||
| 04-מאי | 22:30 | n/a | Calm | Missing | 23° | 73° | 22° | 71° | 94% | 1013 mb | 1,011 ft | ||||
| 04-מאי | 21:30 | n/a | 170° | 1 kt | Missing | 23° | 73° | 22° | 71° | 94% | 1014 mb | 982 ft | |||
| 04-מאי | 20:30 | n/a | 120° | 2 kt | Missing | 24° | 75° | 22° | 71° | 89% | 1013 mb | 1,131 ft | |||
| 04-מאי | 19:30 | n/a | Calm | Missing | 25° | 77° | 22° | 71° | 83% | 1012 mb | 1,281 ft | ||||
| 04-מאי | 18:30 | n/a | 80° | 2 kt | Missing | 28° | 82° | 20° | 68° | 62% | 1012 mb | 1,641 ft | |||
| 04-מאי | 17:30 | n/a | 80° | 7 kt | Missing | 31° | 87° | 19° | 66° | 49% | 1011 mb | 2,030 ft | |||
| 04-מאי | 16:30 | n/a | 70° | 9 kt | Missing | 32° | 89° | 18° | 64° | 43% | 1011 mb | 2,150 ft | |||
| 04-מאי | 15:30 | n/a | 80° | 8 kt | Missing | 34° | 93° | 20° | 68° | 44% | 1010 mb | 2,420 ft | |||
| 04-מאי | 14:30 | n/a | 70° | 9 kt | Missing | 34° | 93° | 20° | 68° | 44% | 1011 mb | 2,390 ft | |||
| 04-מאי | 13:30 | n/a | 80° | 9 kt | Missing | 33° | 91° | 20° | 68° | 46% | 1011 mb | 2,270 ft |
כניסה לאתר
| אין תמיכה בדפדפן שלך. שדרג את הדפדפן שלך |
